Milford Square, PA

10:23 PM EST on February 25, 2017 (GMT -0500)
Quakertown

Weather History for KUKT - November, 2011

Change the Weather History Date:

Monday, November 28, 2011

  Actual Average (KABE) Record (KABE)
Temperature  
Mean Temperature 56 °F -  
Max Temperature 66 °F 50 °F 70 °F (1990)
Min Temperature 46 °F 32 °F 12 °F (1930)
Degree Days  
Heating Degree Days 9    
Growing Degree Days 6 (Base 50)    
Moisture  
Dew Point 50 °F    
Average Humidity 78    
Maximum Humidity 100    
Minimum Humidity 52    
Precipitation  
Precipitation 0.00 in - - ()
Sea Level Pressure  
Sea Level Pressure 30.11 in    
Wind  
Wind Speed 2 mph (SSW)    
Max Wind Speed 14 mph    
Max Gust Speed 22 mph    
Visibility 10 miles    
Events      
Averages and records for this station are not official NWS values.
T = Trace of Precipitation, MM = Missing Value Source: NWS Daily Summary

Daily Weather History Graph

Daily Weather History Graph

Search for Another Location

Airport or City:

Trip Planner

Search our weather history database for the weather conditions in past years. The results will help you decide how hot, cold, wet, or windy it might be!

Date:

Astronomy

Nov. 28, 2011 Rise Set
Actual Time 7:01 AM EST 4:36 PM EST
Civil Twilight 6:31 AM EST 5:06 PM EST
Nautical Twilight 5:58 AM EST 5:40 PM EST
Astronomical Twilight 5:25 AM EST 6:13 PM EST
Moon 10:09 AM EST (11/28) 8:20 PM EST (11/28)
Length of Visible Light 10h 34m
Length of Day
9h 34m
Waxing Crescent, 15% of the Moon is Illuminated
Nov 28
Waxing Crescent
Dec 2
First Quarter
Dec 10
Full
Dec 17
Last Quarter
Dec 24
New

Hourly Weather History & Observations

Time (EST) Temp. Dew Point Humidity Pressure Visibility Wind Dir Wind Speed Gust Speed Precip Events Conditions
12:15 AM 55.4 °F 50.0 °F 82% 30.10 in 10.0 mi SSW 6.9 mph - N/A   Overcast
12:35 AM 55.4 °F 50.0 °F 82% 30.11 in 10.0 mi SSW 5.8 mph - N/A   Overcast
12:55 AM 55.4 °F 50.0 °F 82% 30.11 in 10.0 mi Calm Calm - N/A   Overcast
1:15 AM 55.4 °F 50.0 °F 82% 30.11 in 10.0 mi Calm Calm - N/A   Overcast
1:35 AM 55.4 °F 50.0 °F 82% 30.11 in 10.0 mi South 5.8 mph - N/A   Mostly Cloudy
1:55 AM 55.4 °F 50.0 °F 82% 30.12 in 10.0 mi Calm Calm - N/A   Mostly Cloudy
2:15 AM 53.6 °F 50.0 °F 88% 30.12 in 10.0 mi Calm Calm - N/A   Scattered Clouds
2:35 AM 53.6 °F 50.0 °F 88% 30.12 in 10.0 mi SSW 4.6 mph - N/A   Mostly Cloudy
2:55 AM 53.6 °F 50.0 °F 88% 30.13 in 10.0 mi Calm Calm - N/A   Mostly Cloudy
3:15 AM 53.6 °F 50.0 °F 88% 30.13 in 10.0 mi Calm Calm - N/A   Mostly Cloudy
3:35 AM 53.6 °F 50.0 °F 88% 30.12 in 10.0 mi SSW 3.5 mph - N/A   Mostly Cloudy
3:55 AM 53.6 °F 50.0 °F 88% 30.12 in 10.0 mi Calm Calm - N/A   Scattered Clouds
4:15 AM 53.6 °F 50.0 °F 88% 30.12 in 10.0 mi Calm Calm - N/A   Partly Cloudy
4:35 AM 51.8 °F 50.0 °F 94% 30.12 in 10.0 mi Calm Calm - N/A   Partly Cloudy
4:55 AM 50.0 °F 50.0 °F 100% 30.12 in 10.0 mi Calm Calm - N/A   Scattered Clouds
5:15 AM 48.2 °F 48.2 °F 100% 30.12 in 10.0 mi Calm Calm - N/A   Scattered Clouds
5:35 AM 48.2 °F 48.2 °F 100% 30.12 in 10.0 mi Calm Calm - N/A   Scattered Clouds
5:55 AM 48.2 °F 48.2 °F 100% 30.13 in 10.0 mi Calm Calm - N/A   Mostly Cloudy
6:15 AM 46.4 °F 46.4 °F 100% 30.13 in 10.0 mi Calm Calm - N/A   Mostly Cloudy
6:35 AM 46.4 °F 46.4 °F 100% 30.14 in 10.0 mi Calm Calm - N/A   Mostly Cloudy
6:55 AM 48.2 °F 48.2 °F 100% 30.13 in 10.0 mi Calm Calm - N/A   Scattered Clouds
7:15 AM 48.2 °F 48.2 °F 100% 30.14 in 10.0 mi Calm Calm - N/A   Partly Cloudy
7:35 AM 46.4 °F 46.4 °F 100% 30.14 in 10.0 mi Calm Calm - N/A   Clear
7:55 AM 50.0 °F 50.0 °F 100% 30.16 in 10.0 mi Calm Calm - N/A   Clear
8:35 AM 53.6 °F 51.8 °F 94% 30.16 in 10.0 mi SW 3.5 mph - N/A   Clear
8:55 AM 55.4 °F 51.8 °F 88% 30.16 in 10.0 mi Calm Calm - N/A   Scattered Clouds
9:15 AM 57.2 °F 51.8 °F 82% 30.16 in 10.0 mi Calm Calm - N/A   Scattered Clouds
9:35 AM 57.2 °F 50.0 °F 77% 30.16 in 10.0 mi SSW 4.6 mph - N/A   Mostly Cloudy
9:55 AM 60.8 °F 50.0 °F 68% 30.16 in 10.0 mi SW 6.9 mph - N/A   Partly Cloudy
10:35 AM 60.8 °F 50.0 °F 68% 30.16 in 10.0 mi SW 4.6 mph - N/A   Overcast
10:55 AM 60.8 °F 50.0 °F 68% 30.15 in 10.0 mi SSW 5.8 mph - N/A   Mostly Cloudy
11:15 AM 62.6 °F 50.0 °F 63% 30.14 in 10.0 mi Calm Calm - N/A   Mostly Cloudy
11:35 AM 64.4 °F 50.0 °F 59% 30.13 in 10.0 mi SSW 8.1 mph - N/A   Mostly Cloudy
12:15 PM 64.4 °F 50.0 °F 59% 30.11 in 10.0 mi SW 6.9 mph - N/A   Clear
12:35 PM 66.2 °F 50.0 °F 56% 30.10 in 10.0 mi SW 8.1 mph - N/A   Clear
12:55 PM 66.2 °F 50.0 °F 56% 30.10 in 10.0 mi SW 3.5 mph - N/A   Mostly Cloudy
1:15 PM 66.2 °F 50.0 °F 56% 30.10 in 10.0 mi SSW 9.2 mph - N/A   Overcast
1:35 PM 66.2 °F 48.2 °F 52% 30.09 in 10.0 mi SW 13.8 mph 21.9 mph N/A   Mostly Cloudy
1:55 PM 66.2 °F 48.2 °F 52% 30.09 in 10.0 mi Calm Calm - N/A   Overcast
2:15 PM 66.2 °F 48.2 °F 52% 30.09 in 10.0 mi SSW 3.5 mph - N/A   Overcast
2:35 PM 66.2 °F 50.0 °F 56% 30.09 in 10.0 mi Calm Calm - N/A   Mostly Cloudy
2:55 PM 66.2 °F 48.2 °F 52% 30.08 in 10.0 mi Calm Calm - N/A   Mostly Cloudy
3:15 PM 66.2 °F 48.2 °F 52% 30.09 in 10.0 mi SSW 3.5 mph - N/A   Overcast
3:35 PM 66.2 °F 48.2 °F 52% 30.09 in 10.0 mi Calm Calm - N/A   Overcast
3:55 PM 66.2 °F 48.2 °F 52% 30.08 in 10.0 mi Calm Calm - N/A   Mostly Cloudy
4:15 PM 66.2 °F 48.2 °F 52% 30.09 in 10.0 mi South 3.5 mph - N/A   Clear
4:35 PM 62.6 °F 48.2 °F 59% 30.09 in 10.0 mi Calm Calm - N/A   Clear
4:55 PM 62.6 °F 48.2 °F 59% 30.09 in 10.0 mi Calm Calm - N/A   Clear
5:15 PM 57.2 °F 48.2 °F 72% 30.09 in 10.0 mi Calm Calm - N/A   Clear
5:35 PM 55.4 °F 48.2 °F 77% 30.09 in 10.0 mi Calm Calm - N/A   Partly Cloudy
5:55 PM 59.0 °F 48.2 °F 67% 30.09 in 10.0 mi Calm Calm - N/A   Scattered Clouds
6:35 PM 59.0 °F 50.0 °F 72% 30.08 in 10.0 mi Calm Calm - N/A   Clear
6:55 PM 57.2 °F 50.0 °F 77% 30.09 in 10.0 mi Calm Calm - N/A   Clear
7:15 PM 57.2 °F 50.0 °F 77% 30.08 in 10.0 mi Calm Calm - N/A   Clear
7:35 PM 53.6 °F 50.0 °F 88% 30.08 in 10.0 mi Calm Calm - N/A   Clear
8:15 PM 53.6 °F 51.8 °F 94% 30.08 in 10.0 mi Calm Calm - N/A   Partly Cloudy
8:35 PM 57.2 °F 51.8 °F 82% 30.08 in 10.0 mi Calm Calm - N/A   Partly Cloudy
9:15 PM 55.4 °F 53.6 °F 94% 30.07 in 10.0 mi Calm Calm - N/A   Partly Cloudy
9:35 PM 51.8 °F 51.8 °F 100% 30.07 in 10.0 mi Calm Calm - N/A   Clear
9:55 PM 50.0 °F 50.0 °F 100% 30.07 in 10.0 mi Calm Calm - N/A   Clear
10:15 PM 53.6 °F 53.6 °F 100% 30.07 in 10.0 mi Calm Calm - N/A   Partly Cloudy
10:35 PM 57.2 °F 55.4 °F 94% 30.06 in 10.0 mi Calm Calm - N/A   Scattered Clouds
10:55 PM 57.2 °F 55.4 °F 94% 30.06 in 10.0 mi Calm Calm - N/A   Mostly Cloudy
11:15 PM 57.2 °F 55.4 °F 94% 30.06 in 10.0 mi Calm Calm - N/A   Mostly Cloudy
11:35 PM 57.2 °F 55.4 °F 94% 30.05 in 10.0 mi Calm Calm - N/A   Overcast